QPF
0.00 0.00 0.00 0.00 0.00 0.00 0.00 0.00 0.00 0.00 0.00 0.00 0.00 0.00 0.00 0.00 0.00 0.00 0.00 0.00 0.00 0.00 0.00 0.00 0.00 0.00 0.00 0.00 0.00 0.00 0.00 0.00 0.00 0.00 0.00 0.00 0.00 0.00 0.00 0.00 0.00 0.00 0.00 0.00 0.00 0.00 0.00
0.00 0.00 0.00 0.00 0.00 0.00 0.00 0.00 0.00 0.00 0.00 0.00 0.00 0.00 0.00 0.00 0.00 0.00 0.00 0.00 0.00 0.00 0.00 0.00 0.00 0.00 0.00 0.00 0.00 0.00 0.00 0.00 0.00 0.00 0.00 0.00 0.00 0.00 0.00 0.00 0.00 0.00 0.00 0.00 0.00 0.00 0.00
0.00 0.00 0.00 0.00 0.00 0.00 0.00 0.00 0.00 0.00 0.00 0.00 0.00 0.00 0.00 0.00 0.00 0.00 0.00 0.00 0.00 0.00 0.00 0.00 0.00 0.00 0.00 0.00 0.00 0.00 0.00 0.00 0.00 0.00 0.00 0.00 0.00 0.00 0.00 0.00 0.00 0.00 0.00 0.00 0.00 0.00 0.00
0.01 0.00 0.00 0.00 0.00 0.00 0.00 0.00 0.00 0.00 0.00 0.00 0.00 0.00 0.00 0.00 0.00 0.00 0.00 0.00 0.00 0.00 0.00 0.00 0.00 0.00 0.00 0.00 0.00 0.00 0.00 0.00 0.00 0.00 0.00 0.00 0.00 0.00 0.00 0.00 0.00 0.00 0.00 0.00 0.00 0.00 0.00
0.01 0.01 0.00 0.00 0.00 0.00 0.00 0.00 0.00 0.00 0.00 0.00 0.00 0.00 0.00 0.00 0.00 0.00 0.00 0.00 0.00 0.00 0.00 0.00 0.00 0.00 0.00 0.00 0.00 0.00 0.00 0.00 0.00 0.00 0.00 0.00 0.00 0.00 0.00 0.00 0.00 0.00 0.00 0.00 0.00 0.00 0.00
0.00 0.01 0.00 0.00 0.00 0.00 0.00 0.00 0.00 0.00 0.00 0.00 0.00 0.00 0.00 0.00 0.00 0.00 0.00 0.00 0.00 0.00 0.00 0.00 0.00 0.00 0.00 0.00 0.00 0.00 0.00 0.00 0.00 0.00 0.00 0.00 0.00 0.00 0.00 0.00 0.00 0.00 0.00 0.00 0.00 0.00 0.00
0.00 0.00 0.01 0.01 0.00 0.00 0.00 0.00 0.00 0.00 0.00 0.00 0.00 0.00 0.00 0.00 0.00 0.00 0.00 0.00 0.00 0.00 0.00 0.00 0.00 0.00 0.00 0.00 0.00 0.00 0.00 0.00 0.00 0.00 0.00 0.00 0.00 0.00 0.00 0.00 0.00 0.00 0.00 0.00 0.00 0.00 0.00
0.00 0.00 0.00 0.00 0.00 0.00 0.00 0.00 0.00 0.00 0.00 0.00 0.00 0.00 0.00 0.00 0.00 0.00 0.00 0.01 0.00 0.00 0.00 0.00 0.00 0.00 0.00 0.00 0.00 0.00 0.00 0.00 0.00 0.00 0.00 0.00 0.00 0.00 0.00 0.00 0.00 0.00 0.00 0.00 0.00 0.00 0.00
0.00 0.00 0.00 0.00 0.00 0.00 0.00 0.00 0.00 0.00 0.00 0.00 0.00 0.00 0.00 0.00 0.02 0.01 0.00 0.00 0.00 0.00 0.00 0.00 0.00 0.00 0.00 0.00 0.00 0.00 0.00 0.00 0.00 0.00 0.00 0.00 0.00 0.00 0.00 0.00 0.00 0.00 0.00 0.00 0.00 0.00 0.00
0.00 0.00 0.00 0.00 0.00 0.00 0.00 0.00 0.00 0.00 0.00 0.00 0.00 0.00 0.00 0.00 0.02 0.01 0.00 0.00 0.00 0.00 0.01 0.00 0.00 0.00 0.00 0.00 0.00 0.00 0.00 0.00 0.00 0.00 0.00 0.00 0.00 0.00 0.00 0.00 0.00 0.00 0.00 0.00 0.00 0.00 0.00
0.00 0.00 0.00 0.00 0.00 0.00 0.00 0.00 0.00 0.00 0.00 0.00 0.00 0.00 0.00 0.00 0.00 0.00 0.00 0.00 0.04 0.03 0.00 0.00 0.00 0.00 0.00 0.00 0.00 0.00 0.00 0.00 0.00 0.00 0.00 0.00 0.00 0.00 0.00 0.00 0.00 0.00 0.00 0.00 0.00 0.00 0.00
0.01 0.01 0.01 0.00 0.00 0.00 0.00 0.00 0.00 0.00 0.00 0.00 0.00 0.00 0.00 0.00 0.00 0.00 0.00 0.01 0.03 0.01 0.00 0.00 0.00 0.00 0.00 0.00 0.00 0.00 0.00 0.00 0.00 0.00 0.00 0.00 0.00 0.00 0.00 0.00 0.00 0.00 0.00 0.00 0.00 0.00 0.00
0.00 0.00 0.00 0.00 0.00 0.00 0.00 0.00 0.00 0.00 0.00 0.00 0.00 0.00 0.00 0.00 0.00 0.00 0.00 0.02 0.01 0.00 0.00 0.00 0.00 0.00 0.00 0.00 0.00 0.00 0.00 0.00 0.00 0.00 0.00 0.00 0.00 0.00 0.00 0.00 0.00 0.00 0.00 0.00 0.00 0.00 0.00
0.00 0.00 0.00 0.00 0.00 0.00 0.00 0.00 0.00 0.00 0.00 0.00 0.00 0.01 0.01 0.00 0.00 0.00 0.00 0.01 0.00 0.00 0.00 0.00 0.00 0.00 0.00 0.00 0.00 0.00 0.00 0.00 0.00 0.00 0.00 0.00 0.00 0.00 0.00 0.00 0.00 0.00 0.00 0.00 0.00 0.00 0.00
0.01 0.01 0.00 0.00 0.00 0.00 0.00 0.00 0.00 0.00 0.00 0.00 0.02 0.03 0.02 0.00 0.00 0.00 0.00 0.00 0.00 0.00 0.00 0.00 0.00 0.00 0.00 0.00 0.00 0.00 0.00 0.00 0.00 0.00 0.00 0.00 0.00 0.00 0.00 0.00 0.00 0.00 0.00 0.00 0.00 0.00 0.00
0.02 0.01 0.01 0.00 0.00 0.01 0.01 0.01 0.01 0.01 0.01 0.02 0.02 0.03 0.01 0.00 0.00 0.01 0.01 0.00 0.00 0.00 0.00 0.00 0.00 0.00 0.00 0.00 0.00 0.00 0.00 0.00 0.00 0.00 0.00 0.00 0.00 0.00 0.00 0.00 0.00 0.00 0.00 0.00 0.00 0.00 0.00
0.02 0.02 0.01 0.01 0.00 0.00 0.01 0.01 0.01 0.01 0.02 0.04 0.06 0.03 0.00 0.01 0.00 0.01 0.01 0.00 0.00 0.00 0.00 0.00 0.00 0.00 0.00 0.00 0.00 0.00 0.00 0.00 0.00 0.00 0.00 0.00 0.00 0.00 0.00 0.00 0.00 0.00 0.00 0.00 0.00 0.00 0.00
0.01 0.02 0.02 0.01 0.00 0.01 0.01 0.01 0.01 0.01 0.04 0.09 0.08 0.03 0.01 0.01 0.01 0.00 0.00 0.00 0.00 0.00 0.00 0.00 0.00 0.00 0.00 0.00 0.00 0.00 0.00 0.00 0.00 0.00 0.00 0.00 0.00 0.00 0.00 0.00 0.00 0.00 0.00 0.00 0.00 0.00 0.00
0.01 0.01 0.02 0.02 0.01 0.01 0.01 0.01 0.01 0.01 0.05 0.08 0.07 0.02 0.03 0.03 0.00 0.00 0.00 0.00 0.00 0.00 0.00 0.00 0.00 0.00 0.00 0.00 0.00 0.00 0.00 0.00 0.00 0.00 0.00 0.00 0.00 0.00 0.00 0.00 0.00 0.00 0.00 0.00 0.00 0.00 0.00
0.01 0.01 0.01 0.02 0.02 0.01 0.01 0.02 0.01 0.00 0.02 0.10 0.04 0.01 0.01 0.02 0.00 0.00 0.00 0.00 0.00 0.00 0.00 0.00 0.00 0.00 0.00 0.00 0.00 0.00 0.00 0.00 0.00 0.00 0.00 0.00 0.00 0.00 0.00 0.00 0.00 0.00 0.00 0.00 0.00 0.00 0.00
0.01 0.01 0.01 0.01 0.02 0.02 0.02 0.03 0.01 0.00 0.01 0.11 0.02 0.00 0.00 0.00 0.00 0.00 0.00 0.00 0.00 0.00 0.00 0.00 0.00 0.00 0.00 0.00 0.00 0.00 0.00 0.00 0.00 0.00 0.00 0.00 0.00 0.00 0.00 0.00 0.00 0.00 0.00 0.00 0.00 0.00 0.00
0.01 0.01 0.01 0.02 0.03 0.03 0.03 0.03 0.01 0.00 0.05 0.12 0.02 0.00 0.00 0.00 0.00 0.00 0.00 0.00 0.00 0.00 0.00 0.00 0.00 0.00 0.00 0.00 0.00 0.00 0.00 0.00 0.00 0.00 0.00 0.00 0.00 0.00 0.00 0.00 0.00 0.00 0.00 0.00 0.00 0.00 0.00
0.01 0.01 0.01 0.02 0.02 0.03 0.03 0.03 0.00 0.00 0.11 0.07 0.01 0.00 0.00 0.00 0.00 0.00 0.00 0.00 0.00 0.00 0.00 0.00 0.00 0.00 0.00 0.00 0.00 0.00 0.00 0.00 0.00 0.00 0.00 0.00 0.00 0.00 0.00 0.00 0.00 0.00 0.00 0.00 0.00 0.00 0.00
0.03 0.02 0.01 0.01 0.01 0.02 0.03 0.03 0.01 0.01 0.06 0.02 0.00 0.00 0.00 0.00 0.00 0.00 0.00 0.00 0.00 0.00 0.00 0.00 0.00 0.00 0.00 0.00 0.00 0.00 0.00 0.00 0.00 0.00 0.00 0.00 0.00 0.00 0.00 0.00 0.00 0.00 0.00 0.00 0.00 0.00 0.00
0.02 0.04 0.04 0.04 0.03 0.02 0.02 0.00 0.01 0.03 0.04 0.01 0.00 0.00 0.00 0.00 0.00 0.00 0.00 0.00 0.00 0.00 0.00 0.00 0.00 0.00 0.00 0.00 0.00 0.00 0.00 0.00 0.00 0.00 0.00 0.00 0.00 0.00 0.00 0.00 0.00 0.00 0.00 0.00 0.00 0.00 0.00
0.01 0.02 0.04 0.04 0.04 0.04 0.02 0.01 0.02 0.03 0.08 0.03 0.00 0.00 0.00 0.00 0.00 0.00 0.00 0.00 0.00 0.00 0.00 0.00 0.00 0.00 0.00 0.00 0.00 0.00 0.00 0.00 0.00 0.00 0.00 0.00 0.00 0.00 0.00 0.00 0.00 0.00 0.00 0.00 0.00 0.00 0.00
0.01 0.01 0.01 0.02 0.05 0.06 0.06 0.05 0.06 0.05 0.06 0.02 0.00 0.00 0.00 0.00 0.00 0.00 0.00 0.00 0.00 0.00 0.00 0.00 0.00 0.00 0.00 0.00 0.00 0.00 0.00 0.00 0.00 0.00 0.00 0.00 0.00 0.00 0.00 0.00 0.00 0.00 0.00 0.00 0.00 0.00 0.00
0.01 0.01 0.01 0.01 0.01 0.03 0.06 0.06 0.07 0.05 0.03 0.01 0.00 0.00 0.00 0.00 0.00 0.00 0.00 0.00 0.00 0.00 0.00 0.00 0.00 0.00 0.00 0.00 0.00 0.00 0.00 0.00 0.00 0.00 0.00 0.00 0.00 0.00 0.00 0.00 0.00 0.00 0.00 0.00 0.00 0.00 0.00
0.00 0.00 0.01 0.01 0.01 0.01 0.01 0.02 0.03 0.04 0.03 0.00 0.00 0.00 0.00 0.00 0.00 0.00 0.00 0.00 0.00 0.00 0.00 0.00 0.00 0.00 0.00 0.00 0.00 0.00 0.00 0.00 0.00 0.00 0.00 0.00 0.00 0.00 0.00 0.00 0.00 0.00 0.00 0.00 0.00 0.00 0.00
MSLP
1010.79 1010.62 1010.52 1010.37 1010.00 1009.41 1009.46 1009.82 1010.29 1010.71 1010.97 1011.34 1011.83 1012.17 1012.77 1013.13 1013.60 1013.84 1014.39 1014.72 1015.07 1015.12 1015.21 1015.11 1015.05 1014.70 1013.99 1013.68 1011.87 1010.57 1010.68 1010.65 1010.56 1010.66 1011.04 1011.03 1010.90 1010.81 1010.85 1011.17 1011.37 1011.17 1010.87 1010.98 1010.76 1010.61 1010.33
1010.46 1010.18 1009.97 1009.87 1009.84 1009.55 1008.96 1008.65 1009.13 1009.63 1010.09 1010.46 1010.98 1011.38 1011.93 1012.40 1012.91 1013.13 1013.91 1014.33 1014.82 1015.02 1015.08 1015.07 1014.82 1014.58 1014.34 1013.18 1010.53 1010.34 1010.43 1010.88 1010.63 1010.64 1010.83 1010.91 1010.87 1010.91 1010.91 1011.19 1011.27 1011.22 1011.00 1010.90 1010.58 1010.08 1009.71
1009.94 1009.75 1009.44 1009.28 1009.25 1009.04 1008.92 1008.68 1008.14 1008.50 1009.04 1009.51 1009.96 1010.46 1011.21 1011.68 1012.25 1012.57 1013.29 1013.84 1014.32 1014.56 1014.92 1015.02 1014.83 1014.43 1014.19 1011.52 1010.27 1010.55 1010.67 1010.64 1010.81 1010.48 1010.69 1010.75 1010.83 1011.02 1011.19 1011.16 1011.38 1011.19 1011.07 1010.68 1010.08 1009.87 1009.45
1009.18 1009.18 1009.04 1008.77 1008.62 1008.74 1008.43 1008.32 1008.11 1007.75 1007.98 1008.58 1009.03 1009.50 1010.19 1010.70 1011.53 1012.04 1012.66 1013.40 1013.82 1014.30 1014.45 1014.77 1014.72 1014.41 1012.88 1010.29 1010.23 1010.31 1010.38 1010.06 1010.18 1010.37 1010.34 1010.57 1010.88 1011.12 1011.30 1011.25 1011.43 1011.31 1011.18 1010.52 1009.94 1009.77 1009.53
1008.26 1008.33 1008.35 1008.25 1007.84 1008.06 1008.11 1007.89 1007.74 1007.40 1007.17 1007.43 1008.04 1008.73 1009.21 1009.76 1010.61 1011.41 1012.28 1013.01 1013.61 1014.05 1014.38 1014.49 1014.61 1014.09 1011.88 1009.84 1009.89 1009.15 1009.56 1009.52 1009.72 1010.11 1010.23 1010.43 1010.82 1011.21 1011.48 1011.45 1011.52 1011.39 1010.66 1010.58 1010.16 1009.88 1009.58
1007.62 1007.53 1007.46 1007.44 1007.41 1007.02 1007.27 1007.28 1007.13 1007.04 1006.96 1006.76 1006.93 1007.65 1008.48 1008.87 1009.83 1010.80 1011.90 1012.90 1013.56 1014.15 1014.37 1014.53 1014.00 1014.13 1011.01 1009.36 1008.67 1008.81 1009.15 1009.00 1009.46 1009.74 1010.27 1010.58 1010.97 1011.37 1011.54 1011.37 1010.81 1010.71 1010.71 1010.48 1010.10 1010.14 1009.64
1006.48 1006.63 1006.65 1006.61 1006.63 1006.53 1006.31 1006.44 1006.51 1006.36 1006.39 1006.32 1006.09 1006.40 1007.24 1008.06 1009.08 1010.36 1011.84 1012.93 1013.59 1013.68 1013.39 1011.94 1011.44 1010.63 1009.50 1008.99 1008.59 1008.35 1008.62 1008.75 1009.03 1009.19 1009.70 1010.20 1010.62 1010.49 1009.93 1010.66 1010.84 1010.87 1010.73 1010.28 1010.38 1010.26 1010.06
1005.53 1005.52 1005.66 1005.66 1005.71 1005.82 1005.67 1005.58 1005.68 1005.81 1005.57 1005.55 1005.77 1005.48 1005.97 1006.90 1008.03 1009.69 1010.19 1009.88 1009.60 1009.66 1010.82 1010.80 1010.46 1010.07 1009.22 1009.40 1009.23 1008.33 1008.32 1008.63 1008.79 1008.83 1009.43 1010.28 1009.62 1009.42 1010.11 1010.75 1010.98 1010.99 1011.03 1010.65 1010.32 1010.10 1010.11
1004.25 1004.25 1004.38 1004.47 1004.64 1004.84 1004.81 1004.83 1004.85 1004.93 1005.07 1004.78 1004.92 1005.09 1005.08 1005.53 1006.51 1008.68 1009.07 1008.70 1008.79 1008.87 1009.66 1009.12 1009.09 1009.03 1009.27 1009.05 1008.59 1007.57 1008.42 1008.14 1008.38 1008.86 1008.81 1008.74 1008.71 1008.88 1009.69 1010.39 1010.87 1010.97 1010.94 1010.87 1010.57 1010.31 1009.95
1002.79 1002.92 1003.06 1003.21 1003.37 1003.59 1003.83 1003.88 1004.02 1004.17 1004.27 1004.20 1004.34 1004.44 1004.50 1004.81 1005.85 1006.29 1007.14 1008.43 1008.68 1008.58 1009.41 1007.09 1007.38 1006.51 1007.48 1007.98 1007.08 1006.82 1006.98 1007.59 1008.10 1008.21 1008.73 1008.78 1008.71 1008.98 1009.44 1009.63 1010.22 1010.33 1010.45 1010.63 1010.75 1010.73 1009.83
1001.08 1001.27 1001.51 1001.59 1001.95 1002.17 1002.53 1002.83 1002.94 1003.29 1003.51 1003.57 1003.62 1003.75 1003.88 1003.70 1003.55 1004.57 1005.75 1007.40 1008.36 1009.13 1009.07 1004.88 1005.17 1005.19 1005.37 1006.39 1005.83 1005.46 1005.59 1006.82 1006.80 1007.60 1008.32 1007.83 1008.38 1008.77 1008.75 1008.81 1009.67 1009.69 1010.22 1010.64 1010.83 1010.83 1010.50
999.14 999.33 999.55 999.97 1000.24 1000.67 1001.02 1001.43 1001.81 1002.25 1002.62 1002.86 1003.03 1003.25 1003.80 1003.04 1002.90 1003.33 1005.32 1007.00 1007.60 1009.02 1006.61 1004.52 1004.59 1005.08 1005.36 1005.80 1005.93 1005.71 1005.59 1006.24 1006.71 1007.66 1007.75 1007.68 1008.16 1008.26 1008.03 1008.52 1008.99 1009.69 1010.39 1011.03 1011.47 1011.24 1010.22
996.83 997.09 997.43 997.86 998.26 998.90 999.50 999.98 1000.31 1000.99 1001.52 1001.98 1002.30 1002.51 1003.05 1002.55 1001.99 1002.99 1004.23 1006.10 1006.60 1005.95 1004.69 1003.97 1004.38 1004.57 1004.31 1005.06 1005.85 1005.65 1005.71 1005.80 1006.08 1007.33 1007.24 1007.87 1007.75 1007.90 1007.78 1008.44 1009.29 1009.40 1010.01 1010.75 1011.14 1011.01 1009.08
994.24 994.46 994.81 995.42 996.08 996.74 997.67 998.35 999.17 999.67 1000.33 1001.04 1001.53 1001.94 1001.79 1002.42 1001.69 1001.76 1002.66 1004.27 1003.61 1002.90 1003.70 1003.11 1003.03 1003.48 1003.56 1004.56 1005.21 1004.94 1005.80 1005.72 1006.01 1005.83 1006.04 1007.01 1007.56 1007.26 1007.16 1006.95 1007.73 1008.56 1008.73 1009.38 1009.82 1010.00 1009.38
990.95 991.31 991.95 992.73 993.55 994.60 995.50 996.53 997.52 998.46 999.18 1000.05 1000.95 1001.04 1000.98 1000.95 1000.99 1000.45 1000.61 1001.31 1000.77 1000.12 1001.69 1002.28 1002.64 1002.95 1003.71 1003.52 1003.54 1004.34 1005.08 1005.21 1004.95 1005.40 1005.41 1006.51 1007.10 1007.15 1007.09 1007.17 1007.67 1008.40 1008.52 1009.29 1009.79 1010.60 1010.44
987.38 987.69 988.33 989.51 990.77 992.12 993.31 994.64 995.84 996.99 998.17 999.21 1000.02 1000.38 999.23 999.79 1000.14 998.91 998.66 998.50 999.62 999.10 999.86 1000.99 1001.11 1001.94 1002.90 1002.87 1002.87 1003.30 1004.13 1004.44 1004.62 1004.80 1005.06 1006.08 1007.04 1007.75 1007.72 1007.75 1007.67 1007.30 1008.35 1010.01 1011.21 1011.07 1010.13
983.49 983.42 984.28 985.65 987.60 989.47 991.07 992.66 994.14 995.55 997.03 998.26 999.45 999.44 996.55 998.64 999.10 997.19 995.27 996.90 998.20 998.35 998.31 998.68 1000.49 1001.03 1001.93 1002.04 1002.31 1002.77 1003.36 1004.21 1004.41 1005.08 1005.00 1006.00 1006.95 1008.24 1008.37 1008.02 1007.73 1008.46 1008.37 1009.49 1010.45 1010.66 1009.96
979.60 979.23 979.72 981.65 983.91 986.54 988.83 990.90 992.49 994.19 995.89 997.47 997.95 997.58 995.52 996.86 996.74 995.07 994.49 996.51 997.26 997.70 998.14 998.24 999.69 1000.36 1000.05 1001.79 1002.17 1003.04 1003.36 1003.65 1004.27 1004.77 1005.68 1006.06 1007.56 1008.31 1008.44 1008.59 1008.65 1008.44 1008.19 1008.67 1009.26 1010.53 1010.39
973.89 974.25 975.74 978.16 980.87 983.84 986.68 988.97 991.00 992.73 994.40 996.08 996.18 996.09 995.45 995.10 994.26 993.76 993.92 996.21 996.60 997.49 997.09 998.62 999.53 999.80 999.85 1001.50 1002.93 1003.14 1003.74 1004.39 1004.39 1004.89 1005.18 1006.38 1007.83 1008.85 1008.91 1009.34 1009.14 1008.83 1008.90 1008.93 1009.26 1009.68 1009.23
967.16 968.30 971.94 975.37 978.54 981.79 984.92 987.58 989.77 991.44 992.79 995.22 995.83 995.37 995.57 994.17 993.34 993.46 994.13 994.41 995.60 995.94 996.37 996.82 998.38 999.34 1000.20 1001.36 1002.21 1003.28 1003.86 1004.91 1004.97 1005.17 1005.69 1006.35 1007.18 1007.06 1006.75 1007.30 1007.72 1008.83 1008.92 1009.17 1009.01 1009.19 1008.66
964.73 965.56 970.04 973.99 977.45 980.88 983.93 986.47 988.72 990.33 991.57 993.95 994.09 993.42 992.30 992.91 992.55 992.29 993.31 993.40 994.42 995.23 996.09 996.41 998.43 998.53 998.66 1001.21 1002.52 1003.05 1004.20 1005.12 1005.83 1006.20 1006.45 1006.74 1007.33 1007.31 1008.08 1008.50 1008.54 1008.32 1008.31 1008.69 1008.49 1008.26 1008.15
970.47 970.74 972.75 975.24 977.96 980.86 983.50 985.82 987.83 989.35 990.91 992.62 992.72 992.95 992.01 991.65 991.85 991.55 991.91 992.36 993.05 994.58 994.95 995.75 996.26 998.01 998.85 999.88 1001.16 1002.20 1003.54 1004.50 1005.43 1007.00 1007.01 1007.61 1007.93 1008.13 1008.85 1009.45 1009.51 1009.18 1008.99 1008.88 1008.93 1009.03 1008.52
975.37 974.88 975.60 977.12 979.28 981.51 983.69 985.66 987.30 988.52 990.25 991.08 992.47 992.35 992.01 990.98 991.34 991.57 990.55 991.80 992.94 993.74 995.06 995.12 996.66 998.46 999.86 1001.17 1002.11 1002.65 1003.51 1004.50 1005.38 1006.17 1006.85 1007.57 1008.31 1008.92 1009.81 1010.52 1010.51 1009.88 1008.50 1008.65 1008.64 1008.76 1008.78
978.74 978.42 978.69 979.62 980.93 982.49 984.21 985.77 986.96 987.87 989.45 990.72 991.79 992.12 991.81 990.68 990.52 990.75 990.76 991.49 992.54 993.39 994.94 996.53 997.52 999.32 1001.63 1002.07 1003.36 1004.80 1005.60 1006.43 1006.82 1006.93 1007.12 1008.13 1009.36 1010.39 1011.24 1011.30 1010.71 1008.51 1008.38 1008.24 1008.28 1008.45 1008.65
981.83 981.15 981.22 981.83 982.63 983.74 984.86 985.86 986.84 987.70 988.64 989.94 990.72 991.62 991.54 990.73 989.86 990.69 990.56 991.74 993.18 994.81 996.41 997.27 998.52 999.88 1001.39 1001.86 1004.34 1005.96 1007.36 1007.56 1008.00 1008.30 1008.31 1008.62 1009.65 1010.87 1011.39 1010.94 1009.28 1008.88 1008.82 1008.48 1008.10 1008.19 1008.47
984.13 982.58 982.64 982.90 983.55 984.26 984.99 985.69 986.45 987.23 988.24 989.72 990.28 991.25 990.87 990.51 990.15 989.66 990.90 991.61 993.10 995.30 997.83 999.27 1000.23 1000.93 1001.68 1003.07 1004.04 1005.36 1006.45 1006.54 1007.91 1008.97 1009.14 1009.26 1009.66 1010.23 1011.27 1010.48 1009.44 1008.49 1008.24 1008.42 1008.64 1008.47 1008.20
986.19 985.18 984.55 983.80 984.15 984.65 985.26 985.85 986.27 987.06 988.16 989.27 990.25 990.55 992.18 991.25 990.83 990.72 990.96 991.60 993.14 995.31 997.69 999.58 1000.72 1001.97 1002.25 1002.89 1004.39 1005.32 1005.86 1005.51 1006.65 1007.47 1008.74 1009.30 1009.77 1009.99 1010.36 1009.68 1008.78 1008.32 1008.38 1008.32 1008.88 1008.79 1008.76
988.19 987.21 986.39 985.61 984.94 985.03 985.39 985.89 986.33 987.20 988.00 989.25 990.28 990.55 991.80 992.14 992.39 991.72 991.80 992.44 993.61 993.78 995.70 999.06 1000.88 1002.24 1002.94 1003.36 1004.26 1005.06 1005.21 1005.19 1005.70 1006.49 1006.96 1007.67 1008.68 1009.38 1010.01 1009.62 1008.55 1007.80 1008.49 1008.02 1008.09 1008.66 1009.15
990.07 988.99 988.00 987.34 986.70 986.53 986.04 985.76 986.20 986.91 988.00 988.85 990.29 990.76 991.51 993.35 993.45 993.59 993.43 993.25 992.89 993.15 994.85 998.33 999.20 1000.29 1001.45 1002.75 1003.93 1004.56 1005.05 1005.40 1005.48 1006.22 1006.69 1007.30 1006.43 1007.27 1008.03 1007.87 1007.50 1007.27 1007.21 1007.53 1008.15 1008.60 1009.10
Thickness
5598 5603 5608 5614 5623 5632 5637 5639 5639 5642 5644 5647 5646 5647 5646 5646 5644 5646 5643 5644 5645 5647 5650 5654 5656 5662 5668 5666 5672 5694 5695 5694 5694 5694 5686 5685 5684 5685 5681 5681 5681 5682 5686 5687 5693 5696 5699
5584 5590 5596 5600 5605 5613 5624 5634 5636 5636 5637 5640 5640 5640 5640 5640 5638 5641 5636 5635 5636 5638 5640 5643 5648 5654 5657 5657 5685 5688 5689 5686 5687 5687 5683 5683 5681 5684 5681 5678 5678 5682 5684 5685 5690 5696 5702
5567 5574 5582 5588 5593 5599 5606 5614 5626 5630 5631 5633 5635 5635 5632 5633 5632 5633 5631 5628 5628 5631 5631 5633 5638 5645 5645 5669 5681 5680 5680 5682 5680 5682 5676 5679 5681 5677 5677 5672 5677 5680 5677 5681 5689 5690 5694
5552 5557 5564 5573 5579 5584 5594 5599 5608 5619 5623 5624 5627 5627 5626 5628 5625 5625 5623 5621 5620 5621 5623 5623 5628 5634 5647 5676 5675 5674 5674 5679 5678 5677 5678 5675 5676 5671 5670 5674 5670 5669 5670 5673 5685 5686 5689
5536 5542 5547 5554 5568 5571 5576 5586 5595 5605 5613 5618 5620 5619 5619 5621 5619 5617 5614 5611 5610 5609 5610 5614 5618 5625 5642 5669 5666 5677 5673 5673 5673 5670 5670 5670 5668 5661 5661 5659 5657 5658 5667 5662 5670 5678 5682
5516 5524 5533 5540 5548 5560 5566 5573 5582 5591 5599 5608 5613 5614 5612 5611 5610 5607 5602 5598 5598 5595 5597 5600 5609 5615 5643 5656 5668 5670 5668 5668 5666 5663 5657 5656 5649 5646 5645 5652 5655 5654 5654 5657 5665 5669 5673
5499 5506 5514 5523 5530 5541 5553 5560 5568 5579 5587 5597 5606 5611 5608 5606 5600 5594 5588 5586 5587 5585 5591 5616 5621 5631 5640 5650 5658 5660 5661 5658 5659 5658 5648 5647 5638 5641 5660 5651 5649 5649 5651 5659 5658 5662 5660
5474 5486 5494 5504 5515 5523 5534 5547 5555 5564 5576 5588 5593 5604 5606 5601 5592 5583 5584 5593 5605 5610 5599 5606 5615 5617 5631 5631 5631 5645 5651 5643 5642 5642 5638 5631 5634 5655 5647 5640 5639 5639 5639 5648 5656 5654 5651
5448 5461 5473 5485 5495 5506 5518 5529 5543 5551 5559 5574 5586 5592 5601 5597 5589 5571 5580 5592 5597 5599 5590 5603 5607 5609 5613 5619 5622 5636 5635 5635 5631 5626 5632 5634 5642 5648 5640 5631 5627 5629 5631 5635 5641 5645 5647
5419 5431 5444 5458 5473 5485 5498 5512 5524 5537 5547 5560 5570 5583 5590 5592 5577 5586 5583 5582 5583 5587 5570 5604 5602 5614 5614 5617 5616 5637 5635 5630 5621 5624 5621 5624 5632 5632 5628 5630 5632 5626 5635 5633 5630 5629 5634
5396 5406 5417 5434 5447 5464 5477 5491 5507 5520 5534 5546 5558 5569 5578 5584 5582 5582 5589 5577 5570 5561 5553 5611 5606 5617 5619 5613 5624 5631 5640 5620 5620 5621 5620 5622 5618 5621 5625 5633 5627 5626 5627 5622 5621 5618 5619
5372 5383 5395 5407 5423 5440 5457 5473 5487 5501 5516 5531 5543 5554 5559 5574 5574 5580 5571 5558 5556 5522 5550 5590 5598 5597 5602 5607 5610 5615 5622 5619 5617 5609 5613 5619 5614 5619 5628 5627 5624 5618 5611 5602 5597 5603 5601
5364 5366 5374 5385 5402 5417 5433 5452 5470 5482 5495 5513 5527 5537 5544 5559 5569 5567 5564 5551 5528 5535 5577 5588 5588 5592 5602 5599 5598 5605 5604 5606 5606 5591 5595 5609 5608 5610 5618 5612 5605 5612 5605 5593 5591 5588 5608
5372 5369 5367 5371 5381 5395 5409 5427 5446 5465 5478 5490 5505 5516 5532 5538 5553 5560 5559 5544 5531 5557 5572 5587 5595 5592 5596 5592 5594 5603 5593 5596 5602 5607 5609 5597 5592 5608 5615 5621 5615 5603 5609 5597 5585 5592 5609
5388 5383 5377 5370 5370 5376 5389 5406 5424 5442 5459 5468 5475 5492 5511 5532 5539 5552 5557 5534 5546 5579 5582 5581 5583 5581 5580 5591 5598 5596 5592 5594 5604 5604 5609 5593 5593 5599 5602 5611 5610 5593 5590 5604 5589 5570 5574
5401 5397 5392 5383 5375 5368 5372 5382 5401 5418 5433 5445 5451 5463 5502 5524 5528 5545 5549 5543 5544 5584 5584 5577 5576 5581 5573 5585 5592 5594 5588 5595 5598 5602 5601 5589 5580 5578 5586 5591 5593 5599 5598 5567 5552 5557 5568
5417 5414 5406 5397 5383 5372 5365 5366 5377 5393 5406 5418 5422 5433 5511 5509 5514 5532 5547 5544 5558 5577 5586 5583 5575 5571 5574 5580 5588 5586 5586 5581 5587 5581 5589 5580 5579 5565 5568 5574 5582 5576 5577 5566 5565 5563 5573
5428 5429 5425 5409 5395 5379 5366 5357 5361 5370 5381 5388 5403 5424 5493 5498 5502 5526 5541 5530 5562 5566 5571 5578 5573 5574 5578 5572 5570 5571 5574 5580 5574 5575 5571 5571 5556 5550 5559 5554 5556 5561 5571 5570 5562 5545 5545
5448 5442 5432 5417 5400 5383 5367 5355 5353 5355 5360 5372 5383 5434 5466 5482 5491 5510 5528 5526 5544 5545 5563 5558 5561 5570 5575 5567 5555 5567 5563 5560 5563 5561 5560 5551 5532 5524 5540 5540 5541 5550 5550 5550 5546 5539 5555
5469 5461 5439 5418 5402 5386 5367 5351 5344 5349 5354 5352 5368 5402 5421 5449 5495 5508 5509 5520 5530 5555 5560 5571 5563 5561 5560 5556 5561 5552 5557 5543 5547 5549 5545 5541 5533 5548 5560 5557 5552 5538 5532 5536 5546 5539 5555
5463 5457 5439 5421 5401 5382 5364 5348 5341 5345 5352 5349 5356 5391 5432 5436 5464 5499 5511 5519 5530 5529 5549 5562 5549 5564 5572 5542 5542 5544 5537 5531 5528 5529 5524 5527 5524 5538 5525 5522 5525 5533 5543 5531 5536 5544 5543
5435 5430 5421 5410 5394 5376 5359 5346 5341 5344 5349 5347 5357 5378 5404 5450 5490 5492 5503 5510 5532 5527 5544 5553 5570 5567 5566 5556 5553 5543 5530 5528 5525 5507 5512 5507 5502 5516 5515 5501 5499 5508 5511 5514 5515 5511 5527
5415 5417 5414 5403 5385 5367 5354 5347 5344 5348 5345 5350 5356 5380 5404 5453 5459 5475 5502 5504 5529 5542 5535 5561 5559 5545 5542 5543 5523 5526 5521 5519 5511 5508 5502 5499 5494 5502 5494 5473 5477 5490 5506 5502 5502 5502 5509
5403 5399 5394 5385 5373 5362 5354 5349 5348 5352 5350 5355 5359 5380 5400 5438 5454 5473 5499 5513 5527 5538 5527 5529 5536 5527 5501 5504 5499 5484 5478 5476 5480 5486 5490 5486 5481 5463 5444 5447 5465 5508 5490 5499 5500 5504 5498
5387 5386 5381 5371 5364 5357 5353 5351 5351 5354 5359 5367 5376 5384 5403 5432 5458 5470 5491 5506 5507 5507 5497 5513 5510 5496 5497 5500 5478 5470 5453 5459 5451 5453 5459 5466 5455 5439 5435 5443 5476 5475 5478 5479 5478 5483 5484
5378 5384 5379 5374 5366 5360 5357 5357 5359 5363 5365 5370 5382 5387 5405 5429 5443 5471 5477 5492 5491 5476 5465 5464 5469 5474 5475 5470 5468 5463 5463 5466 5447 5434 5439 5445 5448 5443 5420 5434 5457 5470 5466 5465 5469 5464 5474
5370 5373 5373 5377 5372 5366 5363 5363 5367 5368 5368 5375 5383 5391 5387 5418 5439 5460 5470 5485 5481 5470 5461 5458 5453 5452 5456 5462 5456 5445 5442 5468 5443 5442 5430 5431 5433 5432 5425 5434 5450 5457 5452 5456 5441 5459 5447
5362 5365 5366 5371 5374 5374 5372 5369 5371 5372 5375 5380 5384 5393 5395 5406 5414 5445 5452 5455 5465 5485 5478 5454 5447 5439 5439 5445 5441 5430 5438 5457 5456 5451 5442 5436 5419 5419 5415 5413 5427 5445 5435 5447 5447 5433 5432
5356 5360 5364 5364 5368 5369 5375 5379 5377 5378 5380 5387 5386 5395 5399 5393 5408 5419 5434 5447 5467 5479 5474 5443 5450 5446 5439 5427 5424 5422 5421 5425 5439 5427 5429 5421 5439 5433 5429 5430 5431 5433 5442 5434 5426 5423 5417